Location: Unspecified
(0.0000°N, 0.0000°E)
Time: 11:01:32
(UTC+01:00)

Vanguard 1 - All Passes

Search period start: 18 January 2018 00:00
Search period end: 28 January 2018 00:00
Orbit: 649 x 3834 km, 34.3° (Epoch: 17 January)

Date Brightness Start Highest point End Pass type
(mag) Time Alt. Az. Time Alt. Az. Time Alt. Az.
18 Jan - 03:23:48 10° N 03:26:17 10° NNE 03:28:57 10° NNE visible
18 Jan - 05:41:18 10° NNW 05:56:26 30° NNE 06:15:17 10° E visible
18 Jan - 08:03:00 10° NW 08:25:04 70° NE 08:46:36 10° ESE daylight
18 Jan - 10:29:42 10° WNW 10:52:31 55° SW 11:09:33 10° SE daylight
18 Jan - 13:07:19 10° WSW 13:19:09 19° SSW 13:28:01 10° S daylight
18 Jan - 20:30:38 10° SW 20:34:59 45° SE 20:39:30 10° ENE visible
18 Jan - 22:52:10 10° WNW 22:55:35 18° NNW 22:59:54 10° NNE night (unlit)
19 Jan - 03:43:26 10° N 03:49:22 13° NNE 03:56:28 10° NE visible
19 Jan - 06:01:58 10° NNW 06:18:41 38° NE 06:39:18 10° E visible
19 Jan - 08:24:15 10° NW 08:46:50 84° NE 09:08:15 10° SE daylight
19 Jan - 10:52:36 10° WNW 11:14:11 44° SW 11:30:14 10° SSE daylight
19 Jan - 13:34:00 10° SW 13:41:32 14° SSW 13:47:41 10° S daylight
19 Jan - 20:51:26 10° SW 20:55:55 88° NW 21:00:47 10° NE visible
19 Jan - 23:15:34 10° NW 23:17:13 11° NNW 23:19:02 10° N night (unlit)
20 Jan - 04:03:33 10° N 04:12:13 17° NNE 04:23:18 10° ENE visible
20 Jan - 06:22:40 10° NNW 06:40:41 47° NE 07:02:35 10° ESE visible
20 Jan - 08:45:44 10° NW 09:08:33 82° SW 09:29:35 10° SE daylight
20 Jan - 11:16:11 10° W 11:36:01 35° SW 11:50:48 10° SSE daylight
20 Jan - 18:53:13 10° SSW 18:56:34 16° SSE 18:59:28 10° ESE daylight
20 Jan - 21:12:41 10° WSW 21:16:54 43° NW 21:21:38 10° NE visible
21 Jan - 04:23:47 10° NNW 04:34:46 22° NNE 04:49:22 10° ENE visible
21 Jan - 06:43:29 10° NW 07:02:29 58° NE 07:25:15 10° ESE visible
21 Jan - 09:07:32 10° WNW 09:30:16 68° SW 09:50:42 10° SE daylight
21 Jan - 11:40:33 10° W 11:58:06 27° SSW 12:11:18 10° SSE daylight
21 Jan - 19:13:15 10° SSW 19:17:52 28° SSE 19:21:43 10° E daylight
21 Jan - 21:34:28 10° W 21:38:01 23° NNW 21:42:00 10° NNE visible
22 Jan - 04:44:08 10° NNW 04:56:58 28° NE 05:14:31 10° E visible
22 Jan - 07:04:25 10° NW 07:24:11 71° NE 07:47:25 10° ESE daylight
22 Jan - 09:29:44 10° WNW 09:52:03 55° SW 10:11:39 10° SE daylight
22 Jan - 12:05:50 10° WSW 12:20:31 21° SSW 12:31:45 10° SSE daylight
22 Jan - 19:33:50 10° SW 19:38:58 54° SE 19:43:15 10° ENE visible
22 Jan - 21:57:13 10° NW 21:59:18 13° NNW 22:01:33 10° N visible
23 Jan - 05:04:34 10° NNW 05:18:52 36° NE 05:38:47 10° E visible
23 Jan - 07:25:32 10° NW 07:45:52 85° NE 08:09:11 10° SE daylight
23 Jan - 09:52:28 10° WNW 10:13:58 45° SW 10:32:29 10° SSE daylight
23 Jan - 12:31:55 10° WSW 12:43:14 17° SSW 12:52:13 10° S daylight
23 Jan - 17:35:01 10° S 17:38:42 14° SSE 17:41:41 10° SE daylight
23 Jan - 19:54:52 10° WSW 19:59:56 76° NW 20:04:20 10° NE visible
24 Jan - 03:08:07 10° N 03:14:00 14° NNE 03:21:14 10° NE visible
24 Jan - 05:25:06 10° NNW 05:40:33 46° NE 06:02:16 10° ESE visible
24 Jan - 07:46:54 10° WNW 08:07:35 80° SW 08:30:39 10° SE daylight
24 Jan - 10:15:50 10° W 10:36:07 36° SSW 10:53:14 10° SSE daylight
24 Jan - 12:58:31 10° SW 13:06:17 13° SSW 13:12:43 10° S daylight
24 Jan - 17:54:55 10° SSW 18:00:19 23° SSE 18:04:17 10° ESE daylight
24 Jan - 20:16:20 10° WSW 20:20:50 37° NW 20:24:58 10° NNE visible
25 Jan - 03:27:35 10° N 03:36:11 19° NE 03:47:51 10° ENE visible
25 Jan - 05:45:45 10° NW 06:02:06 58° NE 06:25:05 10° ESE visible
25 Jan - 08:08:34 10° WNW 08:29:23 67° SW 08:51:53 10° SE daylight
25 Jan - 10:39:57 10° W 10:58:33 29° SSW 11:14:00 10° SSE daylight
25 Jan - 13:24:57 10° SSW 13:29:29 11° SSW 13:33:28 10° S daylight
25 Jan - 15:55:55 10° S 15:58:08 11° S 16:00:06 10° SSE daylight
25 Jan - 18:15:26 10° SW 18:21:43 37° SSE 18:26:06 10° E daylight
25 Jan - 20:38:27 10° W 20:41:49 19° NW 20:45:04 10° NNE visible
26 Jan - 03:47:33 10° NNW 03:58:03 26° NE 04:13:15 10° E visible
26 Jan - 06:06:34 10° NW 06:23:37 72° NE 06:47:23 10° ESE visible
26 Jan - 08:30:38 10° WNW 08:51:20 55° SW 09:12:59 10° SE daylight
26 Jan - 11:04:52 10° WSW 11:21:19 23° SSW 11:34:50 10° SSE daylight
26 Jan - 13:49:52 10° SSW 13:52:42 11° S 13:55:18 10° S daylight
26 Jan - 16:15:09 10° SSW 16:20:18 15° SSE 16:24:16 10° SE daylight
26 Jan - 18:36:19 10° SW 18:42:53 67° SE 18:47:24 10° ENE daylight
27 Jan - 04:07:44 10° NNW 04:19:37 34° NE 04:37:40 10° E visible
27 Jan - 06:27:36 10° NW 06:45:10 87° NE 07:09:17 10° SE visible
27 Jan - 08:53:11 10° W 09:13:29 45° SSW 09:33:58 10° SE daylight
27 Jan - 11:30:28 10° WSW 11:44:25 19° SSW 11:55:49 10° SSE daylight
27 Jan - 14:12:00 10° SSW 14:15:48 11° S 14:19:07 10° SSE daylight
27 Jan - 16:35:21 10° SSW 16:42:15 21° SSE 16:47:01 10° ESE daylight
27 Jan - 18:57:35 10° WSW 19:03:51 67° NW 19:08:19 10° NE daylight
